Location: G�migny
(47.9646°N, 1.6950°E)
Time: 14:39:33
(UTC+00:00)

STARLINK-79 - Pass Details

Date: 23 October 2019
Orbit: 548 x 551 km, 53.0° (Epoch: 16 November)

Event Time Altitude Azimuth Distance (km) Brightness Sun altitude
Rises 19:17:38 0° 295° (WNW) 2,721 8.4 -25.2°
Reaches altitude 10° 19:19:53 10° 298° (WNW) 1,826 7.2 -25.6°
Enters shadow 19:23:01 48° 318° (NW) 723 4.4 -26.1°
